Lexington Weather

Lexington, Massachusetts, USA

42°F
1/23/2020 12:05pm 
  • Lexington Conditions: Mostly cloudy
  • Temperature: 42.1°F / 5.6°CWarmer 5.1°F than last hour.
  • Dew Point: 22.3°FIncreased 1.3°Fsince last hour.
  • Relative Humidity: 45%Decreased 7.0% since last hour.
  • Wind: Calm, 10-min avg: Calm, gust: 4 mph
  • Barometer: 30.31 inFalling 0.03  inHg/hr Falling Slowly
  • Visibility: 10 miles
  • Rain Today: 0.01 in
  •   

Regional Weather Roundup
for Boston / Norton, MA

        
000
ASUS41 KBOX 212310
RWRBOX

REGIONAL WEATHER ROUNDUP
NATIONAL WEATHER SERVICE BOSTON/NORTON MA
600 PM EST TUE JAN 21 2020

NOTE:  "FAIR" INDICATES FEW OR NO CLOUDS BELOW 12,000 FEET WITH NO 
SIGNIFICANT WEATHER AND/OR OBSTRUCTIONS TO VISIBILITY.

MAZALL-220000-
EASTERN MASSACHUSETTS
  
CITY           SKY/WX    TMP DP  RH WIND       PRES   REMARKS
BOSTON         FAIR      25   1  35 NE5       30.42R WCI  19          
BEVERLY        FAIR      18   1  47 CALM      30.41R                  
LAWRENCE       FAIR      19  -1  41 CALM      30.43R                  
BEDFORD        FAIR      17   1  49 CALM      30.41R                  
BLUE HILL        N/A     19  -1  41 CALM      30.36R                  
NORWOOD        FAIR      17   5  59 CALM      30.42R                  
MARSHFIELD     FAIR      21   7  53 W3        30.41S                  
PLYMOUTH       FAIR      21   4  47 CALM      30.41R                  
TAUNTON        FAIR      17   4  56 CALM      30.41R                  
NEW BEDFORD    FAIR      23   1  38 VRB6      30.41R WCI  16          
$$

MAZALL-220000-
CAPE COD AND THE ISLANDS
  
CITY           SKY/WX    TMP DP  RH WIND       PRES   REMARKS
FALMOUTH       CLOUDY    25   5  42 N5        30.40R WCI  19          
HYANNIS        MOCLDY    27  17  66 N6        30.39R WCI  20          
CHATHAM        FAIR      27  21  78 NW6       30.40R WCI  20          
PROVINCETOWN   CLOUDY    27  21  78 NW8       30.41R WCI  19          
NANTUCKET      MOCLDY    29  22  75 N12       30.39R WCI  19          
MARTHAS VNYRD  FAIR      27   9  46 N6        30.40R WCI  20          
$$
 
MAZALL-220000-
CENTRAL AND WESTERN MASSACHUSETTS
  
CITY           SKY/WX    TMP DP  RH WIND       PRES   REMARKS
WORCESTER      FAIR      20  -1  40 NW3       30.35R                  
FITCHBURG      FAIR      16   1  51 CALM      30.40R                  
ORANGE         FAIR      16   1  51 CALM      30.40R                  
SPRINGFIELD    CLEAR     21  -2  36 N3        30.40R                  
WESTFIELD      FAIR      22  -1  36 W3        30.41R                  
NORTH ADAMS    FAIR       9  -2  61 W6        30.40S WCI  -1          
PITTSFIELD     FAIR      16   0  49 NW6       30.34S WCI   7          
$$
 
RIZALL-220000-
RHODE ISLAND
  
CITY           SKY/WX    TMP DP  RH WIND       PRES   REMARKS
PROVIDENCE     FAIR      24   2  38 NW3       30.42R                  
NEWPORT        FAIR      24   3  40 NE3       30.40R                  
BLOCK ISLAND   FAIR      27   6  41 NW7       30.42R WCI  19          
SMITHFIELD     FAIR      18   4  54 CALM      30.39R                  
WESTERLY       FAIR      28   3  34 CALM      30.42R                  
$$
 
CTZALL-220000-
CONNECTICUT
  
CITY           SKY/WX    TMP DP  RH WIND       PRES   REMARKS
BRADLEY INTL   FAIR      22   1  40 NW9       30.41R WCI  12          
HARTFORD       FAIR      27   0  31 NW7       30.43R WCI  19          
BRIDGEPORT     FAIR      28   3  34 NW7       30.43R WCI  21          
DANBURY        FAIR      23   5  46 CALM      30.42R                  
GROTON         FAIR      23   8  52 NW3       30.42R                  
NEW HAVEN      FAIR      29   3  33 NW5       30.42R WCI  24          
CHESTER        FAIR      23   3  42 NW3       30.40R                  
MERIDEN        FAIR      25   0  33 W8        30.43R WCI  16          
WILLIMANTIC    FAIR      24   3  40 CALM      30.41R                  
OXFORD         FAIR      23   3  42 NW6       30.39R WCI  16          
$$

MEZ002-015-021-024-NHZ003-005-008-011-012-014-VTZ005-008-220000-
NORTHERN NEW ENGLAND
  
CITY           SKY/WX    TMP DP  RH WIND       PRES   REMARKS
PORTLAND ME    MOCLDY    18   7  62 S3        30.40R                  
BANGOR ME      FAIR       9   1  70 CALM      30.37S                  
CONCORD NH     FAIR      17  -1  45 CALM      30.39R                  
MANCHESTER NH  FAIR      20   1  43 CALM      30.38R                  
NASHUA NH      FAIR      17   4  56 CALM      30.41R                  
PORTSMOUTH NH  CLEAR     21  -4  33 SW3       30.39R                  
JAFFREY NH     FAIR       9   1  70 CALM      30.34R                  
KEENE NH       FAIR      10   3  73 CALM      30.40R                  
BURLINGTON VT  MOCLDY    17   4  56 SW6       30.40R WCI   9          
MT. WASHINGTON PTCLDY     3  -8  60 NW39        N/A  WCI -24          
$$

NYZ052-076-220000-
EASTERN NEW YORK
  
CITY           SKY/WX    TMP DP  RH WIND       PRES   REMARKS
ALBANY         FAIR      20   4  50 CALM      30.44S                  
NEW YORK CITY  MOCLDY    32   7  35 NW10      30.43R WCI  24          
$$
 
ANZALL-220000-
MARINE OBSERVATIONS
  
STATION/POSITION TIME  TEMP    WIND        PRES    VSBY  WAVE
                       AIR SEA DIR/SP/G                  HT/PER
                 (UTC) (F)     (DEG/KT/KT) (MB)    (MI)  (FT/S)
BOSTON BUOY      2250   26 42  320/  4/  8 1029.4R         2/11
BUZZARDS BAY     2200   27     340/  7/ 10 1029.6R
NANTUCKET SOUND  2240                        N/A           1/ 3
MASS BAY-STELLWA 2204   25 41  320/  4/  6 1027.8R  1 7/8  2/11
ISLE OF SHOALS   2200   24     220/  4/  6 1029.0R
S OF BLOCK IS    2300      45                N/A           2/10
$$

......................KEY.........................
  SKY/WX - SKY CONDITION/PRESENT WEATHER
  TMP    - TEMPERATURE IN FAHRENHEIT
  DWPT   - DEWPOINT IN FAHRENHEIT
  RH     - RELATIVE HUMIDITY IN PERCENT
  WIND   - DIRECTION AND SPEED IN MPH
  PRES   - MEAN SEA LEVEL PRESSURE IN INCHES OF HG
  WCI    - WIND CHILL INDEX
  VSB    - VISIBILITY IN MILES
  HX     - HEAT INDEX
  TC     - TEMPERATURE IN CELSIUS
  VRB    - VARIABLE WIND DIRECTION
  N/A    - NOT AVAILABLE
  
      

Other recent Regional Weather Roundups

Thu Jan 23, 11:10am

Thu Jan 23, 11:00am

Thu Jan 23, 10:10am

Thu Jan 23, 10:00am

Thu Jan 23, 9:10am

Thu Jan 23, 9:00am

Thu Jan 23, 8:10am

Thu Jan 23, 8:00am

Thu Jan 23, 7:10am

Thu Jan 23, 7:01am

Thu Jan 23, 6:10am

Thu Jan 23, 6:00am

Thu Jan 23, 5:10am

Thu Jan 23, 5:00am

Thu Jan 23, 4:10am

Thu Jan 23, 4:01am

Thu Jan 23, 3:10am

Thu Jan 23, 3:00am

Thu Jan 23, 2:10am

Thu Jan 23, 2:00am

Thu Jan 23, 1:10am

Thu Jan 23, 1:00am

Thu Jan 23, 12:10am

Thu Jan 23, 12:00am

Wed Jan 22, 11:10pm

Wed Jan 22, 11:01pm

Wed Jan 22, 10:10pm

Wed Jan 22, 10:00pm

Wed Jan 22, 9:10pm

Wed Jan 22, 9:00pm

Wed Jan 22, 8:10pm

Wed Jan 22, 8:01pm

Wed Jan 22, 7:10pm

Wed Jan 22, 7:00pm

Wed Jan 22, 6:10pm

Wed Jan 22, 6:01pm

Wed Jan 22, 5:10pm

Wed Jan 22, 5:00pm

Wed Jan 22, 4:10pm

Wed Jan 22, 4:00pm

Wed Jan 22, 3:10pm

Wed Jan 22, 3:00pm

Wed Jan 22, 2:10pm

Wed Jan 22, 2:00pm

Wed Jan 22, 1:10pm

Wed Jan 22, 1:00pm

Wed Jan 22, 12:10pm

Wed Jan 22, 12:00pm

Wed Jan 22, 11:10am

Wed Jan 22, 11:00am

Wed Jan 22, 10:10am

Wed Jan 22, 10:01am

Wed Jan 22, 9:10am

Wed Jan 22, 9:00am

Wed Jan 22, 8:10am

Wed Jan 22, 8:00am

Wed Jan 22, 7:10am

Wed Jan 22, 7:00am

Wed Jan 22, 6:10am

Wed Jan 22, 6:00am

Wed Jan 22, 5:10am

Wed Jan 22, 5:00am

Wed Jan 22, 4:10am

Wed Jan 22, 4:00am

Wed Jan 22, 3:10am

Wed Jan 22, 3:01am

Wed Jan 22, 2:10am

Wed Jan 22, 2:00am

Wed Jan 22, 1:10am

Wed Jan 22, 1:00am

Wed Jan 22, 12:10am

Wed Jan 22, 12:00am

Tue Jan 21, 11:10pm

Tue Jan 21, 11:00pm

Tue Jan 21, 10:10pm

Tue Jan 21, 10:00pm

Tue Jan 21, 9:10pm

Tue Jan 21, 9:01pm

Tue Jan 21, 8:10pm

Tue Jan 21, 8:00pm

Tue Jan 21, 7:10pm

Tue Jan 21, 7:00pm

Tue Jan 21, 6:01pm

Tue Jan 21, 5:10pm

Tue Jan 21, 5:00pm

Tue Jan 21, 4:10pm

Tue Jan 21, 4:00pm

Tue Jan 21, 3:10pm

Tue Jan 21, 3:01pm

Tue Jan 21, 2:10pm

Tue Jan 21, 2:00pm

Tue Jan 21, 1:10pm

Tue Jan 21, 1:00pm

Tue Jan 21, 12:10pm

Tue Jan 21, 12:00pm

Tue Jan 21, 11:10am

Tue Jan 21, 11:00am

Tue Jan 21, 10:10am

Tue Jan 21, 10:00am

Tue Jan 21, 9:10am

Tue Jan 21, 9:00am

Tue Jan 21, 8:10am

Tue Jan 21, 8:00am

Tue Jan 21, 7:10am

Tue Jan 21, 7:00am

Tue Jan 21, 6:10am

Tue Jan 21, 6:00am

Tue Jan 21, 5:10am

Tue Jan 21, 5:00am

Tue Jan 21, 4:10am

Tue Jan 21, 4:00am

Tue Jan 21, 3:10am

Tue Jan 21, 3:00am

Tue Jan 21, 2:10am

Tue Jan 21, 2:01am

Tue Jan 21, 1:10am

Tue Jan 21, 1:00am

Tue Jan 21, 12:10am

Tue Jan 21, 12:00am

Mon Jan 20, 11:10pm

Mon Jan 20, 11:00pm

Mon Jan 20, 10:10pm

Mon Jan 20, 10:00pm

Mon Jan 20, 9:10pm

Mon Jan 20, 9:00pm

Mon Jan 20, 8:10pm

Mon Jan 20, 8:00pm

Mon Jan 20, 7:10pm

Mon Jan 20, 7:00pm

Mon Jan 20, 6:10pm

Mon Jan 20, 6:00pm

Mon Jan 20, 5:10pm

Mon Jan 20, 5:00pm

Mon Jan 20, 4:10pm

Mon Jan 20, 4:01pm

Mon Jan 20, 3:10pm

Mon Jan 20, 3:00pm

Mon Jan 20, 2:10pm

Mon Jan 20, 2:00pm

Mon Jan 20, 1:10pm

Mon Jan 20, 1:00pm

Mon Jan 20, 12:10pm

Mon Jan 20, 12:00pm

Meta data:

ID: 71763747-b555-4c50-925a-9f4015f18d7f
Link: https://api.weather.gov/products/71763747-b555-4c50-925a-9f4015f18d7f